OCN31E EDDM-GCTS

Flight info

Callsign OCN31E
Flight time 5h 17m
Altitude 35000
Route ALG2Q ALG Y109 UMTEX Y100 TRA DCT LUTIX DCT BENOT DCT NEMOS DCT NINTU DCT MEBAK DCT REPSI DCT LERGA DCT MINSO DCT NARAK DCT AGN DCT PIPOR L866 PPN/N0449F370 DCT MIRPO DCT DGO DCT NEA L14 ADINO DCT RAKOD DCT ELVAR DCT GAIOS DCT TROIA DCT BEXAL UN866 KONBA
Aircraft A320/M-SDE2E3FGIJ1LORWXYZ/HB1

Departure

Time 2026-05-04 16:21
Airport Munich Airport (EDDM)

Arrival

Time 2026-05-04 21:38
Airport Tenerife Sur Airport (GCTS)
Time Latitude Longitude Altitude Speed Heading
2026-05-04 15:26 48.35693 11.79694 1486 ft 0 kts 83°
2026-05-04 16:06 48.35685 11.79594 1476 ft 4 kts 73°
2026-05-04 16:07 48.35673 11.79561 1473 ft 4 kts 29°
2026-05-04 16:07 48.35641 11.79558 1478 ft 0 kts 353°
2026-05-04 16:11 48.35643 11.79552 1485 ft 1 kts 315°
2026-05-04 16:12 48.35563 11.79504 1476 ft 11 kts 173°
2026-05-04 16:12 48.35255 11.79557 1485 ft 13 kts 174°
2026-05-04 16:13 48.35111 11.79582 1485 ft 8 kts 173°
2026-05-04 16:13 48.34994 11.79576 1471 ft 9 kts 207°
2026-05-04 16:14 48.34874 11.79553 1478 ft 7 kts 175°
2026-05-04 16:14 48.34775 11.79392 1485 ft 21 kts 265°
2026-05-04 16:15 48.34726 11.78704 1478 ft 23 kts 264°
2026-05-04 16:16 48.34690 11.78216 1485 ft 24 kts 263°
2026-05-04 16:16 48.34629 11.77443 1485 ft 26 kts 264°
2026-05-04 16:17 48.34587 11.76904 1481 ft 26 kts 263°
2026-05-04 16:18 48.34523 11.76069 1485 ft 27 kts 263°
2026-05-04 16:18 48.34503 11.75783 1485 ft 28 kts 264°
2026-05-04 16:19 48.34392 11.75219 1480 ft 11 kts 173°
2026-05-04 16:19 48.34266 11.75244 1473 ft 7 kts 173°
2026-05-04 16:20 48.34096 11.75467 1485 ft 30 kts 84°
2026-05-04 16:20 48.34251 11.77447 1475 ft 150 kts 83°
2026-05-04 16:21 48.34657 11.82900 2861 ft 189 kts 84°
2026-05-04 16:22 48.34976 11.87247 3352 ft 233 kts 83°
2026-05-04 16:22 48.35187 11.94951 5335 ft 253 kts 111°
2026-05-04 16:23 48.31430 12.00414 7635 ft 257 kts 143°
2026-05-04 16:24 48.24617 12.01098 10155 ft 280 kts 221°
2026-05-04 16:25 48.22847 11.95538 10651 ft 324 kts 255°
2026-05-04 16:26 48.20774 11.81948 13200 ft 342 kts 255°
2026-05-04 16:26 48.19104 11.71400 15015 ft 350 kts 254°
2026-05-04 16:27 48.17963 11.64246 16189 ft 356 kts 254°
2026-05-04 16:28 48.16216 11.53317 17893 ft 364 kts 254°
2026-05-04 16:28 48.14410 11.42118 18927 ft 370 kts 254°
2026-05-04 16:29 48.11985 11.27213 18947 ft 369 kts 254°
2026-05-04 16:30 48.10165 11.16080 18948 ft 368 kts 254°
2026-05-04 16:31 48.08936 11.08629 18950 ft 368 kts 254°
2026-05-04 16:31 48.07088 10.97479 18975 ft 367 kts 254°
2026-05-04 16:32 48.05243 10.86391 18948 ft 367 kts 254°
2026-05-04 16:33 48.04004 10.78982 18951 ft 367 kts 254°
2026-05-04 16:33 48.02757 10.71567 18954 ft 367 kts 254°
2026-05-04 16:34 48.01638 10.64963 18955 ft 367 kts 254°
2026-05-04 16:34 48.01009 10.61267 18957 ft 367 kts 254°
2026-05-04 16:35 47.99132 10.50224 18970 ft 366 kts 254°
2026-05-04 16:35 47.97240 10.39156 18974 ft 366 kts 254°
2026-05-04 16:36 47.96603 10.35463 18979 ft 366 kts 253°
2026-05-04 16:36 47.95334 10.28143 18974 ft 366 kts 253°
2026-05-04 16:37 47.94057 10.20776 18974 ft 366 kts 253°
2026-05-04 16:37 47.93420 10.17100 18974 ft 366 kts 253°
2026-05-04 16:37 47.92140 10.09751 18968 ft 366 kts 253°
2026-05-04 16:38 47.90855 10.02405 18968 ft 365 kts 253°
2026-05-04 16:39 47.88923 9.91432 18965 ft 365 kts 253°
2026-05-04 16:39 47.87633 9.84151 18957 ft 365 kts 253°
2026-05-04 16:40 47.86334 9.76822 18960 ft 365 kts 253°
2026-05-04 16:40 47.85033 9.69503 18965 ft 365 kts 253°
2026-05-04 16:41 47.83722 9.62217 18965 ft 365 kts 254°
2026-05-04 16:41 47.82284 9.51059 18969 ft 366 kts 259°
2026-05-04 16:42 47.81042 9.39819 18969 ft 366 kts 258°
2026-05-04 16:43 47.80151 9.32408 18968 ft 366 kts 258°
2026-05-04 16:43 47.79227 9.24927 18965 ft 366 kts 258°
2026-05-04 16:43 47.78767 9.21194 18964 ft 366 kts 258°
2026-05-04 16:44 47.76930 9.06361 18960 ft 365 kts 258°
2026-05-04 16:45 47.75996 8.98919 18958 ft 365 kts 258°
2026-05-04 16:46 47.74756 8.89010 19241 ft 368 kts 258°
2026-05-04 16:46 47.73808 8.81496 20254 ft 372 kts 258°
2026-05-04 16:47 47.72849 8.73932 21185 ft 377 kts 257°
2026-05-04 16:47 47.71861 8.66220 22085 ft 382 kts 257°
2026-05-04 16:48 47.70348 8.54494 23384 ft 390 kts 257°
2026-05-04 16:48 47.69836 8.50521 23765 ft 393 kts 257°
2026-05-04 16:49 47.68280 8.42765 24479 ft 393 kts 242°
2026-05-04 16:49 47.65252 8.36032 25190 ft 395 kts 233°
2026-05-04 16:50 47.62004 8.29355 25909 ft 398 kts 233°
2026-05-04 16:50 47.58769 8.22683 26602 ft 401 kts 233°
2026-05-04 16:51 47.55489 8.15935 27267 ft 405 kts 233°
2026-05-04 16:51 47.53838 8.12541 27613 ft 406 kts 233°
2026-05-04 16:51 47.50543 8.05778 28256 ft 410 kts 233°
2026-05-04 16:52 47.47176 7.98897 28903 ft 413 kts 233°
2026-05-04 16:52 47.45483 7.95454 29207 ft 415 kts 233°
2026-05-04 16:53 47.42092 7.88565 29777 ft 418 kts 233°
2026-05-04 16:53 47.36924 7.78081 30494 ft 423 kts 233°
2026-05-04 16:54 47.35188 7.74574 30793 ft 422 kts 233°
2026-05-04 16:55 47.28292 7.60674 32154 ft 417 kts 233°
2026-05-04 16:55 47.24885 7.53826 32815 ft 415 kts 233°
2026-05-04 16:56 47.21475 7.46992 33475 ft 413 kts 233°
2026-05-04 16:56 47.16374 7.36800 34452 ft 410 kts 233°
2026-05-04 16:57 47.14651 7.33474 34741 ft 409 kts 232°
2026-05-04 16:57 47.11111 7.26968 35249 ft 408 kts 231°
2026-05-04 16:58 47.05749 7.17293 35966 ft 406 kts 232°
2026-05-04 16:58 47.03974 7.14056 36152 ft 406 kts 232°
2026-05-04 16:59 47.00477 7.07611 36618 ft 405 kts 232°
2026-05-04 17:00 46.93442 6.94743 37055 ft 403 kts 232°
2026-05-04 17:01 46.84672 6.78847 37057 ft 402 kts 232°
2026-05-04 17:02 46.77646 6.66181 37053 ft 402 kts 232°
2026-05-04 17:03 46.72365 6.56700 37055 ft 401 kts 232°
2026-05-04 17:03 46.67074 6.47242 37040 ft 400 kts 232°
2026-05-04 17:04 46.60041 6.34713 37050 ft 399 kts 232°
2026-05-04 17:05 46.53041 6.22278 37055 ft 398 kts 232°
2026-05-04 17:06 46.47783 6.13000 37056 ft 397 kts 231°
2026-05-04 17:07 46.43105 6.04752 37058 ft 397 kts 231°
2026-05-04 17:07 46.38991 5.97524 37059 ft 397 kts 231°
2026-05-04 17:08 46.33694 5.88265 37057 ft 397 kts 231°
2026-05-04 17:09 46.30183 5.82135 37052 ft 397 kts 231°
2026-05-04 17:09 46.26672 5.76022 37049 ft 397 kts 231°
2026-05-04 17:10 46.17826 5.60668 37026 ft 397 kts 231°
2026-05-04 17:11 46.14330 5.54492 37023 ft 397 kts 236°
2026-05-04 17:12 46.09639 5.44685 37020 ft 397 kts 236°
2026-05-04 17:13 46.01796 5.28387 37025 ft 396 kts 235°
2026-05-04 17:14 45.95498 5.15380 37024 ft 396 kts 235°
2026-05-04 17:15 45.90753 5.05607 37020 ft 396 kts 235°
2026-05-04 17:16 45.84444 4.92639 37022 ft 397 kts 235°
2026-05-04 17:17 45.78097 4.79699 37018 ft 396 kts 234°
2026-05-04 17:18 45.71760 4.66823 37018 ft 396 kts 234°
2026-05-04 17:19 45.65409 4.53981 37002 ft 396 kts 234°
2026-05-04 17:20 45.59056 4.41184 36991 ft 396 kts 234°
2026-05-04 17:20 45.54258 4.31545 36992 ft 396 kts 234°
2026-05-04 17:21 45.47877 4.18802 36984 ft 396 kts 234°
2026-05-04 17:22 45.44668 4.12410 36988 ft 396 kts 234°
2026-05-04 17:23 45.38239 3.99655 36991 ft 396 kts 234°
2026-05-04 17:24 45.33430 3.90166 36995 ft 396 kts 234°
2026-05-04 17:25 45.26992 3.77503 36999 ft 395 kts 233°
2026-05-04 17:26 45.20638 3.64747 37001 ft 395 kts 235°
2026-05-04 17:27 45.12780 3.48775 36998 ft 395 kts 234°
2026-05-04 17:28 45.06983 3.37103 36981 ft 395 kts 234°
2026-05-04 17:29 44.97494 3.18077 36964 ft 394 kts 234°
2026-05-04 17:31 44.89576 3.02300 36932 ft 395 kts 233°
2026-05-04 17:32 44.81698 2.86337 36935 ft 397 kts 236°
2026-05-04 17:33 44.75764 2.73203 36944 ft 398 kts 236°
2026-05-04 17:34 44.69720 2.60148 36950 ft 399 kts 235°
2026-05-04 17:35 44.62103 2.43818 36948 ft 399 kts 235°
2026-05-04 17:36 44.59073 2.37332 36949 ft 399 kts 235°
2026-05-04 17:36 44.56021 2.30817 36951 ft 399 kts 235°
2026-05-04 17:37 44.52961 2.24301 36950 ft 399 kts 235°
2026-05-04 17:37 44.49899 2.17796 36948 ft 400 kts 234°
2026-05-04 17:38 44.46850 2.11334 36947 ft 400 kts 234°
2026-05-04 17:38 44.43777 2.04837 36952 ft 400 kts 234°
2026-05-04 17:39 44.39163 1.95100 36948 ft 399 kts 234°
2026-05-04 17:39 44.36100 1.88674 36953 ft 399 kts 234°
2026-05-04 17:40 44.33021 1.82205 36956 ft 399 kts 234°
2026-05-04 17:40 44.29939 1.75750 36948 ft 399 kts 234°
2026-05-04 17:41 44.26896 1.69259 36948 ft 399 kts 235°
2026-05-04 17:41 44.23935 1.62760 36951 ft 399 kts 235°
2026-05-04 17:42 44.20949 1.56212 36953 ft 399 kts 235°
2026-05-04 17:42 44.17949 1.49697 36945 ft 399 kts 234°
2026-05-04 17:43 44.14938 1.43191 36949 ft 399 kts 234°
2026-05-04 17:43 44.11921 1.36690 36947 ft 399 kts 234°
2026-05-04 17:44 44.08922 1.30231 36953 ft 399 kts 234°
2026-05-04 17:44 44.05899 1.23731 36949 ft 399 kts 234°
2026-05-04 17:45 44.02868 1.17242 36953 ft 399 kts 234°
2026-05-04 17:45 43.99848 1.10785 36951 ft 400 kts 234°
2026-05-04 17:46 43.96813 1.04308 36950 ft 400 kts 234°
2026-05-04 17:46 43.93759 0.97829 36952 ft 401 kts 234°
2026-05-04 17:47 43.90718 0.91378 36949 ft 401 kts 234°
2026-05-04 17:47 43.87681 0.84868 36954 ft 402 kts 236°
2026-05-04 17:48 43.84817 0.78227 36959 ft 403 kts 237°
2026-05-04 17:48 43.81996 0.71497 36962 ft 403 kts 237°
2026-05-04 17:49 43.79136 0.64800 36963 ft 404 kts 237°
2026-05-04 17:49 43.76259 0.58165 36968 ft 404 kts 237°
2026-05-04 17:50 43.73352 0.51489 36973 ft 405 kts 237°
2026-05-04 17:50 43.70454 0.44802 36976 ft 405 kts 237°
2026-05-04 17:51 43.67548 0.38115 36979 ft 406 kts 237°
2026-05-04 17:51 43.64644 0.31467 36986 ft 406 kts 237°
2026-05-04 17:52 43.61718 0.24782 36994 ft 406 kts 237°
2026-05-04 17:52 43.58778 0.18090 36998 ft 407 kts 237°
2026-05-04 17:53 43.55859 0.11452 37004 ft 407 kts 237°
2026-05-04 17:53 43.52920 0.04764 37007 ft 407 kts 237°
2026-05-04 17:54 43.49970 -0.01917 37015 ft 407 kts 237°
2026-05-04 17:54 43.47033 -0.08547 37013 ft 407 kts 237°
2026-05-04 17:55 43.44082 -0.15209 37009 ft 407 kts 237°
2026-05-04 17:55 43.41121 -0.21867 37008 ft 408 kts 237°
2026-05-04 17:56 43.38148 -0.28521 37009 ft 408 kts 237°
2026-05-04 17:56 43.35196 -0.35135 37011 ft 408 kts 237°
2026-05-04 17:57 43.32221 -0.41785 37013 ft 408 kts 237°
2026-05-04 17:57 43.29241 -0.48430 37013 ft 408 kts 237°
2026-05-04 17:58 43.26276 -0.55016 37020 ft 407 kts 237°
2026-05-04 17:58 43.23289 -0.61647 37023 ft 407 kts 237°
2026-05-04 17:59 43.20306 -0.68251 37029 ft 407 kts 237°
2026-05-04 18:00 43.15842 -0.78104 37038 ft 407 kts 237°
2026-05-04 18:00 43.12850 -0.84683 37040 ft 407 kts 237°
2026-05-04 18:01 43.09854 -0.91251 37043 ft 407 kts 237°
2026-05-04 18:01 43.06854 -0.97815 37036 ft 406 kts 237°
2026-05-04 18:02 43.02348 -1.07665 37034 ft 406 kts 237°
2026-05-04 18:02 42.99366 -1.14177 37034 ft 406 kts 237°
2026-05-04 18:03 42.96362 -1.20724 37028 ft 406 kts 237°
2026-05-04 18:03 42.93342 -1.27263 37028 ft 406 kts 237°
2026-05-04 18:04 42.90346 -1.33752 37029 ft 406 kts 237°
2026-05-04 18:05 42.85818 -1.43513 37020 ft 405 kts 237°
2026-05-04 18:05 42.82802 -1.50004 37014 ft 405 kts 237°
2026-05-04 18:06 42.78285 -1.59705 37008 ft 405 kts 237°
2026-05-04 18:06 42.75252 -1.66195 37008 ft 405 kts 237°
2026-05-04 18:07 42.72745 -1.73012 37016 ft 407 kts 251°
2026-05-04 18:07 42.71092 -1.80383 37009 ft 407 kts 251°
2026-05-04 18:08 42.69431 -1.87757 37016 ft 407 kts 251°
2026-05-04 18:08 42.67772 -1.95066 37019 ft 407 kts 251°
2026-05-04 18:09 42.64425 -2.09780 37029 ft 407 kts 251°
2026-05-04 18:10 42.62743 -2.17119 37021 ft 407 kts 251°
2026-05-04 18:10 42.61294 -2.23196 37020 ft 406 kts 250°
2026-05-04 18:11 42.59216 -2.31663 37014 ft 406 kts 250°
2026-05-04 18:11 42.57731 -2.37719 37008 ft 407 kts 250°
2026-05-04 18:12 42.55950 -2.45002 37008 ft 406 kts 250°
2026-05-04 18:12 42.54167 -2.52306 37010 ft 406 kts 250°
2026-05-04 18:13 42.52384 -2.59594 37026 ft 406 kts 250°
2026-05-04 18:14 42.49706 -2.70459 37021 ft 407 kts 250°
2026-05-04 18:14 42.47901 -2.77750 37015 ft 407 kts 250°
2026-05-04 18:15 42.43972 -2.92101 37028 ft 407 kts 245°
2026-05-04 18:16 42.41594 -2.99088 37028 ft 408 kts 245°
2026-05-04 18:16 42.39207 -3.06075 37017 ft 408 kts 245°
2026-05-04 18:17 42.35650 -3.16491 37026 ft 408 kts 245°
2026-05-04 18:18 42.32075 -3.26928 37024 ft 407 kts 245°
2026-05-04 18:18 42.29689 -3.33861 37021 ft 406 kts 245°
2026-05-04 18:19 42.26122 -3.44196 37033 ft 405 kts 245°
2026-05-04 18:19 42.23730 -3.51099 37017 ft 404 kts 245°
2026-05-04 18:20 42.21355 -3.57919 37012 ft 404 kts 245°
2026-05-04 18:20 42.18966 -3.64789 37013 ft 403 kts 245°
2026-05-04 18:21 42.16584 -3.71631 37008 ft 402 kts 245°
2026-05-04 18:21 42.14202 -3.78449 37011 ft 402 kts 245°
2026-05-04 18:22 42.11822 -3.85225 37010 ft 401 kts 245°
2026-05-04 18:22 42.09426 -3.92019 37007 ft 401 kts 245°
2026-05-04 18:23 42.07034 -3.98817 37005 ft 401 kts 245°
2026-05-04 18:23 42.04642 -4.05597 37006 ft 401 kts 245°
2026-05-04 18:24 42.01732 -4.11921 37001 ft 403 kts 229°
2026-05-04 18:24 41.97562 -4.17000 36991 ft 405 kts 224°
2026-05-04 18:25 41.93312 -4.21980 36990 ft 405 kts 224°
2026-05-04 18:25 41.89064 -4.26973 36985 ft 405 kts 224°
2026-05-04 18:26 41.84846 -4.31916 36982 ft 405 kts 224°
2026-05-04 18:26 41.80582 -4.36880 36984 ft 404 kts 224°
2026-05-04 18:27 41.76349 -4.41785 36979 ft 404 kts 224°
2026-05-04 18:27 41.72092 -4.46721 36975 ft 404 kts 224°
2026-05-04 18:28 41.67833 -4.51659 36979 ft 404 kts 224°
2026-05-04 18:28 41.63586 -4.56576 36980 ft 404 kts 224°
2026-05-04 18:29 41.59355 -4.61458 36972 ft 404 kts 224°
2026-05-04 18:29 41.55090 -4.66373 36965 ft 403 kts 224°
2026-05-04 18:30 41.48728 -4.73685 36970 ft 403 kts 224°
2026-05-04 18:31 41.44466 -4.78572 36958 ft 403 kts 224°
2026-05-04 18:31 41.40226 -4.83428 36962 ft 403 kts 224°
2026-05-04 18:32 41.35966 -4.88309 36954 ft 403 kts 224°
2026-05-04 18:32 41.31700 -4.93182 36952 ft 403 kts 224°
2026-05-04 18:33 41.27427 -4.98042 36963 ft 404 kts 224°
2026-05-04 18:33 41.23172 -5.02874 36958 ft 404 kts 224°
2026-05-04 18:34 41.18888 -5.07736 36959 ft 404 kts 224°
2026-05-04 18:34 41.14637 -5.12561 36963 ft 404 kts 224°
2026-05-04 18:35 41.10350 -5.17405 36976 ft 404 kts 224°
2026-05-04 18:35 41.06090 -5.22199 36990 ft 403 kts 224°
2026-05-04 18:36 41.01809 -5.27019 37007 ft 403 kts 224°
2026-05-04 18:36 40.97535 -5.31832 37015 ft 403 kts 224°
2026-05-04 18:37 40.93280 -5.36606 37026 ft 403 kts 224°
2026-05-04 18:37 40.88996 -5.41408 37031 ft 403 kts 224°
2026-05-04 18:38 40.84715 -5.46195 37028 ft 402 kts 224°
2026-05-04 18:38 40.80438 -5.50971 37026 ft 402 kts 224°
2026-05-04 18:39 40.76187 -5.55713 37020 ft 402 kts 224°
2026-05-04 18:39 40.71907 -5.60479 37012 ft 401 kts 224°
2026-05-04 18:40 40.67663 -5.65188 37000 ft 401 kts 224°
2026-05-04 18:40 40.63389 -5.69924 36994 ft 401 kts 225°
2026-05-04 18:41 40.59117 -5.74655 36996 ft 401 kts 225°
2026-05-04 18:41 40.54866 -5.79350 37007 ft 401 kts 225°
2026-05-04 18:42 40.50594 -5.84057 37002 ft 400 kts 225°
2026-05-04 18:42 40.46325 -5.88765 37001 ft 400 kts 225°
2026-05-04 18:43 40.42080 -5.93442 36999 ft 400 kts 225°
2026-05-04 18:43 40.37799 -5.98140 36998 ft 400 kts 225°
2026-05-04 18:44 40.33520 -6.02824 36987 ft 400 kts 225°
2026-05-04 18:44 40.29271 -6.07465 36987 ft 400 kts 225°
2026-05-04 18:45 40.25005 -6.12134 36985 ft 399 kts 225°
2026-05-04 18:45 40.20742 -6.16794 36978 ft 399 kts 225°
2026-05-04 18:46 40.16465 -6.21440 36975 ft 399 kts 225°
2026-05-04 18:46 40.12190 -6.26076 36975 ft 399 kts 225°
2026-05-04 18:47 40.07913 -6.30710 36973 ft 399 kts 225°
2026-05-04 18:47 40.03675 -6.35325 36970 ft 398 kts 227°
2026-05-04 18:48 39.99771 -6.40424 36974 ft 395 kts 231°
2026-05-04 18:48 39.95972 -6.45618 36986 ft 395 kts 231°
2026-05-04 18:49 39.92207 -6.50780 36982 ft 395 kts 231°
2026-05-04 18:49 39.88411 -6.55945 36989 ft 395 kts 231°
2026-05-04 18:50 39.84587 -6.61106 36989 ft 395 kts 231°
2026-05-04 18:50 39.80771 -6.66253 36994 ft 394 kts 231°
2026-05-04 18:51 39.76981 -6.71362 36997 ft 394 kts 231°
2026-05-04 18:51 39.73163 -6.76488 36996 ft 394 kts 231°
2026-05-04 18:52 39.69343 -6.81614 37003 ft 394 kts 231°
2026-05-04 18:52 39.65530 -6.86731 37005 ft 394 kts 231°
2026-05-04 18:53 39.61730 -6.91817 37010 ft 394 kts 231°
2026-05-04 18:53 39.57905 -6.96930 37016 ft 394 kts 231°
2026-05-04 18:54 39.54098 -7.02023 37023 ft 394 kts 231°
2026-05-04 18:54 39.50915 -7.06267 37031 ft 394 kts 231°
2026-05-04 18:55 39.47087 -7.11349 37035 ft 394 kts 231°
2026-05-04 18:55 39.41344 -7.18958 37027 ft 393 kts 231°
2026-05-04 18:56 39.37513 -7.24029 37037 ft 393 kts 231°
2026-05-04 18:56 39.33694 -7.29076 37040 ft 392 kts 232°
2026-05-04 18:57 39.29889 -7.34103 37052 ft 392 kts 231°
2026-05-04 18:57 39.26055 -7.39148 37051 ft 392 kts 231°
2026-05-04 18:58 39.22261 -7.44146 37055 ft 391 kts 232°
2026-05-04 18:58 39.18451 -7.49158 37052 ft 391 kts 232°
2026-05-04 18:59 39.14631 -7.54166 37059 ft 391 kts 231°
2026-05-04 18:59 39.10837 -7.59126 37063 ft 390 kts 232°
2026-05-04 19:00 39.07018 -7.64120 37065 ft 390 kts 232°
2026-05-04 19:00 39.03225 -7.69061 37066 ft 389 kts 232°
2026-05-04 19:01 38.99413 -7.74020 37065 ft 389 kts 232°
2026-05-04 19:01 38.95600 -7.78975 37061 ft 389 kts 232°
2026-05-04 19:02 38.91796 -7.83922 37064 ft 388 kts 232°
2026-05-04 19:02 38.88011 -7.88840 37059 ft 388 kts 232°
2026-05-04 19:03 38.84200 -7.93766 37064 ft 388 kts 231°
2026-05-04 19:03 38.80412 -7.98654 37067 ft 388 kts 231°
2026-05-04 19:04 38.76605 -8.03574 37072 ft 388 kts 231°
2026-05-04 19:04 38.72797 -8.08483 37076 ft 388 kts 231°
2026-05-04 19:05 38.69004 -8.13350 37078 ft 388 kts 231°
2026-05-04 19:05 38.65189 -8.18242 37077 ft 388 kts 231°
2026-05-04 19:06 38.61370 -8.23143 37075 ft 388 kts 231°
2026-05-04 19:06 38.57547 -8.28040 37078 ft 388 kts 231°
2026-05-04 19:07 38.53725 -8.32920 37082 ft 388 kts 231°
2026-05-04 19:07 38.49923 -8.37760 37081 ft 388 kts 231°
2026-05-04 19:08 38.46094 -8.42632 37089 ft 388 kts 231°
2026-05-04 19:08 38.42267 -8.47496 37076 ft 388 kts 231°
2026-05-04 19:09 38.38439 -8.52357 37079 ft 388 kts 231°
2026-05-04 19:09 38.34630 -8.57188 37083 ft 388 kts 231°
2026-05-04 19:10 38.30790 -8.62055 37085 ft 388 kts 231°
2026-05-04 19:10 38.26955 -8.66905 37087 ft 388 kts 230°
2026-05-04 19:11 38.23126 -8.71731 37094 ft 388 kts 230°
2026-05-04 19:11 38.19279 -8.76580 37096 ft 389 kts 230°
2026-05-04 19:12 38.13531 -8.83806 37100 ft 389 kts 230°
2026-05-04 19:13 38.09679 -8.88636 37102 ft 389 kts 230°
2026-05-04 19:13 38.05821 -8.93466 37103 ft 389 kts 230°
2026-05-04 19:14 38.01986 -8.98262 37104 ft 389 kts 230°
2026-05-04 19:14 37.98120 -9.03089 37107 ft 389 kts 230°
2026-05-04 19:15 37.94257 -9.07910 37112 ft 389 kts 230°
2026-05-04 19:15 37.90402 -9.12706 37112 ft 390 kts 230°
2026-05-04 19:16 37.86531 -9.17518 37118 ft 390 kts 230°
2026-05-04 19:16 37.82679 -9.22306 37117 ft 390 kts 230°
2026-05-04 19:17 37.78797 -9.27116 37124 ft 390 kts 229°
2026-05-04 19:17 37.74910 -9.31923 37125 ft 390 kts 229°
2026-05-04 19:18 37.71022 -9.36725 37127 ft 390 kts 229°
2026-05-04 19:18 37.67149 -9.41501 37134 ft 391 kts 229°
2026-05-04 19:19 37.63251 -9.46306 37131 ft 391 kts 229°
2026-05-04 19:19 37.59379 -9.51059 37139 ft 391 kts 229°
2026-05-04 19:20 37.55482 -9.55839 37147 ft 391 kts 229°
2026-05-04 19:20 37.51586 -9.60614 37151 ft 390 kts 229°
2026-05-04 19:21 37.47686 -9.65395 37149 ft 390 kts 229°
2026-05-04 19:21 37.43793 -9.70154 37146 ft 390 kts 229°
2026-05-04 19:22 37.39899 -9.74908 37146 ft 389 kts 229°
2026-05-04 19:22 37.36030 -9.79621 37149 ft 389 kts 229°
2026-05-04 19:23 37.32141 -9.84361 37152 ft 389 kts 229°
2026-05-04 19:23 37.28249 -9.89088 37149 ft 388 kts 229°
2026-05-04 19:24 37.24361 -9.93795 37148 ft 388 kts 229°
2026-05-04 19:24 37.20497 -9.98476 37148 ft 387 kts 229°
2026-05-04 19:25 37.16614 -10.03175 37153 ft 387 kts 229°
2026-05-04 19:25 37.12734 -10.07853 37153 ft 387 kts 229°
2026-05-04 19:26 37.08848 -10.12534 37153 ft 386 kts 229°
2026-05-04 19:26 37.04972 -10.17199 37155 ft 386 kts 229°
2026-05-04 19:27 37.01118 -10.21834 37154 ft 386 kts 229°
2026-05-04 19:27 36.97231 -10.26499 37156 ft 385 kts 229°
2026-05-04 19:28 36.93354 -10.31142 37153 ft 385 kts 229°
2026-05-04 19:28 36.89501 -10.35754 37152 ft 385 kts 229°
2026-05-04 19:29 36.85634 -10.40381 37141 ft 385 kts 229°
2026-05-04 19:29 36.81759 -10.45004 37141 ft 384 kts 229°
2026-05-04 19:30 36.77909 -10.49584 37148 ft 384 kts 229°
2026-05-04 19:30 36.74035 -10.54189 37145 ft 384 kts 229°
2026-05-04 19:31 36.70159 -10.58793 37139 ft 384 kts 229°
2026-05-04 19:31 36.66306 -10.63361 37135 ft 384 kts 229°
2026-05-04 19:32 36.62422 -10.67954 37141 ft 384 kts 229°
2026-05-04 19:32 36.58539 -10.72541 37133 ft 384 kts 229°
2026-05-04 19:33 36.54657 -10.77130 37146 ft 385 kts 229°
2026-05-04 19:33 36.50788 -10.81689 37138 ft 385 kts 229°
2026-05-04 19:34 36.46897 -10.86271 37152 ft 385 kts 229°
2026-05-04 19:34 36.43002 -10.90847 37151 ft 385 kts 229°
2026-05-04 19:35 36.39761 -10.94649 37150 ft 385 kts 229°
2026-05-04 19:35 36.35230 -10.99963 37152 ft 385 kts 229°
2026-05-04 19:36 36.31985 -11.03764 37151 ft 385 kts 229°
2026-05-04 19:36 36.28084 -11.08328 37155 ft 385 kts 229°
2026-05-04 19:37 36.24183 -11.12876 37155 ft 385 kts 228°
2026-05-04 19:37 36.20282 -11.17433 37154 ft 385 kts 229°
2026-05-04 19:38 36.16380 -11.21984 37156 ft 385 kts 228°
2026-05-04 19:38 36.12473 -11.26513 37154 ft 385 kts 228°
2026-05-04 19:39 36.08587 -11.31022 37153 ft 384 kts 228°
2026-05-04 19:39 36.04684 -11.35548 37155 ft 384 kts 228°
2026-05-04 19:40 36.00780 -11.40068 37156 ft 384 kts 228°
2026-05-04 19:40 35.96872 -11.44557 37155 ft 385 kts 225°
2026-05-04 19:41 35.92518 -11.48492 37155 ft 388 kts 221°
2026-05-04 19:41 35.88150 -11.52329 37153 ft 387 kts 221°
2026-05-04 19:42 35.83749 -11.56189 37153 ft 387 kts 221°
2026-05-04 19:42 35.79353 -11.60037 37152 ft 387 kts 221°
2026-05-04 19:43 35.74990 -11.63859 37153 ft 387 kts 221°
2026-05-04 19:43 35.70596 -11.67699 37157 ft 387 kts 221°
2026-05-04 19:44 35.66200 -11.71534 37155 ft 386 kts 220°
2026-05-04 19:44 35.61816 -11.75359 37157 ft 386 kts 220°
2026-05-04 19:45 35.57453 -11.79155 37154 ft 386 kts 220°
2026-05-04 19:45 35.53054 -11.82969 37152 ft 387 kts 220°
2026-05-04 19:46 35.48659 -11.86785 37154 ft 387 kts 220°
2026-05-04 19:46 35.44284 -11.90580 37156 ft 387 kts 220°
2026-05-04 19:47 35.39878 -11.94405 37156 ft 387 kts 220°
2026-05-04 19:47 35.35498 -11.98198 37153 ft 387 kts 220°
2026-05-04 19:48 35.31076 -12.02020 37158 ft 388 kts 220°
2026-05-04 19:48 35.26680 -12.05803 37156 ft 388 kts 220°
2026-05-04 19:49 35.22253 -12.09609 37156 ft 388 kts 220°
2026-05-04 19:49 35.17822 -12.13413 37158 ft 389 kts 220°
2026-05-04 19:50 35.13394 -12.17220 37153 ft 389 kts 220°
2026-05-04 19:50 35.08985 -12.21005 37158 ft 389 kts 220°
2026-05-04 19:51 35.04546 -12.24807 37159 ft 389 kts 220°
2026-05-04 19:51 35.00102 -12.28608 37155 ft 390 kts 220°
2026-05-04 19:52 34.95681 -12.32377 37157 ft 390 kts 220°
2026-05-04 19:52 34.91236 -12.36174 37157 ft 390 kts 219°
2026-05-04 19:53 34.86779 -12.39971 37164 ft 390 kts 219°
2026-05-04 19:53 34.82354 -12.43740 37176 ft 390 kts 219°
2026-05-04 19:54 34.77901 -12.47528 37171 ft 390 kts 219°
2026-05-04 19:54 34.73448 -12.51312 37173 ft 390 kts 219°
2026-05-04 19:55 34.69021 -12.55061 37178 ft 390 kts 219°
2026-05-04 19:55 34.64558 -12.58834 37174 ft 390 kts 219°
2026-05-04 19:56 34.60094 -12.62601 37170 ft 390 kts 219°
2026-05-04 19:56 34.55660 -12.66348 37165 ft 390 kts 219°
2026-05-04 19:57 34.51194 -12.70110 37164 ft 391 kts 219°
2026-05-04 19:57 34.46720 -12.73869 37166 ft 391 kts 219°
2026-05-04 19:58 34.42244 -12.77637 37163 ft 391 kts 219°
2026-05-04 19:58 34.37768 -12.81398 37160 ft 391 kts 219°
2026-05-04 19:59 34.33317 -12.85139 37157 ft 391 kts 219°
2026-05-04 19:59 34.28827 -12.88901 37157 ft 392 kts 219°
2026-05-04 20:00 34.24363 -12.92631 37159 ft 392 kts 219°
2026-05-04 20:00 34.19890 -12.96408 37159 ft 392 kts 219°
2026-05-04 20:01 34.15419 -13.00187 37155 ft 392 kts 219°
2026-05-04 20:01 34.10945 -13.03955 37154 ft 392 kts 219°
2026-05-04 20:02 34.06481 -13.07700 37157 ft 392 kts 219°
2026-05-04 20:02 34.01995 -13.11465 37154 ft 392 kts 219°
2026-05-04 20:03 33.97538 -13.15197 37152 ft 392 kts 219°
2026-05-04 20:03 33.93051 -13.18962 37148 ft 392 kts 219°
2026-05-04 20:04 33.88570 -13.22716 37152 ft 392 kts 219°
2026-05-04 20:04 33.84076 -13.26457 37151 ft 392 kts 219°
2026-05-04 20:05 33.79619 -13.30172 37151 ft 392 kts 219°
2026-05-04 20:05 33.75141 -13.33912 37148 ft 392 kts 219°
2026-05-04 20:06 33.70646 -13.37662 37147 ft 392 kts 219°
2026-05-04 20:06 33.66184 -13.41367 37145 ft 392 kts 219°
2026-05-04 20:07 33.61691 -13.45090 37141 ft 392 kts 219°
2026-05-04 20:07 33.57187 -13.48820 37144 ft 392 kts 219°
2026-05-04 20:08 33.52713 -13.52528 37141 ft 392 kts 219°
2026-05-04 20:08 33.48214 -13.56243 37140 ft 392 kts 219°
2026-05-04 20:09 33.43714 -13.59952 37137 ft 392 kts 219°
2026-05-04 20:09 33.39238 -13.63648 37136 ft 392 kts 219°
2026-05-04 20:10 33.34742 -13.67365 37138 ft 392 kts 219°
2026-05-04 20:10 33.30237 -13.71077 37134 ft 392 kts 219°
2026-05-04 20:11 33.25765 -13.74746 37138 ft 392 kts 219°
2026-05-04 20:11 33.21253 -13.78441 37137 ft 392 kts 219°
2026-05-04 20:12 33.16742 -13.82131 37137 ft 392 kts 219°
2026-05-04 20:12 33.12252 -13.85795 37138 ft 392 kts 219°
2026-05-04 20:13 33.07730 -13.89468 37143 ft 392 kts 218°
2026-05-04 20:13 33.03210 -13.93130 37141 ft 392 kts 218°
2026-05-04 20:14 32.98688 -13.96783 37138 ft 392 kts 218°
2026-05-04 20:14 32.94204 -14.00409 37135 ft 392 kts 218°
2026-05-04 20:15 32.89689 -14.04066 37135 ft 392 kts 218°
2026-05-04 20:15 32.85171 -14.07710 37136 ft 392 kts 218°
2026-05-04 20:16 32.80661 -14.11347 37136 ft 391 kts 218°
2026-05-04 20:16 32.76143 -14.14973 37139 ft 391 kts 218°
2026-05-04 20:17 32.71659 -14.18583 37139 ft 391 kts 218°
2026-05-04 20:17 32.67153 -14.22203 37138 ft 391 kts 218°
2026-05-04 20:18 32.62638 -14.25821 37139 ft 390 kts 218°
2026-05-04 20:18 32.58166 -14.29411 37141 ft 390 kts 218°
2026-05-04 20:19 32.53662 -14.33009 37140 ft 390 kts 218°
2026-05-04 20:19 32.49913 -14.35990 37139 ft 389 kts 218°
2026-05-04 20:20 32.44685 -14.40157 37139 ft 389 kts 218°
2026-05-04 20:20 32.40197 -14.43740 37145 ft 388 kts 218°
2026-05-04 20:21 32.36469 -14.46714 37146 ft 388 kts 218°
2026-05-04 20:21 32.29746 -14.52063 37146 ft 387 kts 218°
2026-05-04 20:22 32.25271 -14.55610 37148 ft 387 kts 218°
2026-05-04 20:22 32.20822 -14.59126 37145 ft 386 kts 218°
2026-05-04 20:23 32.16351 -14.62666 37143 ft 386 kts 218°
2026-05-04 20:23 32.11917 -14.66182 37143 ft 385 kts 218°
2026-05-04 20:24 32.07458 -14.69711 37142 ft 385 kts 218°
2026-05-04 20:24 32.02997 -14.73225 37144 ft 385 kts 218°
2026-05-04 20:25 31.98541 -14.76733 37146 ft 384 kts 218°
2026-05-04 20:25 31.94110 -14.80220 37143 ft 384 kts 218°
2026-05-04 20:26 31.89658 -14.83720 37142 ft 384 kts 218°
2026-05-04 20:26 31.85213 -14.87211 37141 ft 384 kts 218°
2026-05-04 20:27 31.80767 -14.90696 37140 ft 383 kts 218°
2026-05-04 20:27 31.76355 -14.94154 37142 ft 382 kts 218°
2026-05-04 20:28 31.71920 -14.97630 37140 ft 382 kts 218°
2026-05-04 20:28 31.67532 -15.01060 37134 ft 381 kts 218°
2026-05-04 20:29 31.63112 -15.04507 37132 ft 380 kts 218°
2026-05-04 20:29 31.58694 -15.07948 37135 ft 380 kts 218°
2026-05-04 20:30 31.54287 -15.11377 37134 ft 380 kts 218°
2026-05-04 20:30 31.49905 -15.14788 37133 ft 379 kts 218°
2026-05-04 20:31 31.45518 -15.18196 37134 ft 379 kts 218°
2026-05-04 20:31 31.41117 -15.21619 37136 ft 379 kts 218°
2026-05-04 20:32 31.36706 -15.25032 37134 ft 379 kts 218°
2026-05-04 20:32 31.32304 -15.28434 37131 ft 378 kts 218°
2026-05-04 20:33 31.27871 -15.31720 37129 ft 380 kts 215°
2026-05-04 20:33 31.23213 -15.34696 37131 ft 381 kts 213°
2026-05-04 20:34 31.18543 -15.37567 37130 ft 381 kts 213°
2026-05-04 20:34 31.13859 -15.40496 37131 ft 381 kts 213°
2026-05-04 20:35 31.09206 -15.43460 37130 ft 381 kts 214°
2026-05-04 20:35 31.04549 -15.46440 37125 ft 381 kts 214°
2026-05-04 20:36 30.99906 -15.49402 37132 ft 381 kts 213°
2026-05-04 20:36 30.95265 -15.52335 37134 ft 381 kts 213°
2026-05-04 20:37 30.90607 -15.55288 37134 ft 380 kts 214°
2026-05-04 20:37 30.85976 -15.58216 37131 ft 380 kts 213°
2026-05-04 20:38 30.81321 -15.61157 37128 ft 380 kts 213°
2026-05-04 20:38 30.76667 -15.64092 37129 ft 380 kts 213°
2026-05-04 20:39 30.72038 -15.67012 37136 ft 380 kts 213°
2026-05-04 20:39 30.67383 -15.69948 37133 ft 380 kts 213°
2026-05-04 20:40 30.62727 -15.72882 37137 ft 380 kts 214°
2026-05-04 20:40 30.58107 -15.75791 37135 ft 379 kts 213°
2026-05-04 20:41 30.53449 -15.78713 37131 ft 379 kts 213°
2026-05-04 20:41 30.48835 -15.81604 37129 ft 378 kts 214°
2026-05-04 20:42 30.44206 -15.84511 37132 ft 378 kts 214°
2026-05-04 20:42 30.39567 -15.87417 37134 ft 378 kts 214°
2026-05-04 20:43 30.34930 -15.90315 37131 ft 378 kts 214°
2026-05-04 20:43 30.30333 -15.93185 37127 ft 377 kts 214°
2026-05-04 20:44 30.25707 -15.96077 37128 ft 377 kts 214°
2026-05-04 20:44 30.21076 -15.98964 37131 ft 377 kts 214°
2026-05-04 20:45 30.16475 -16.01827 37133 ft 377 kts 214°
2026-05-04 20:45 30.11843 -16.04707 37135 ft 377 kts 214°
2026-05-04 20:46 30.07255 -16.07563 37131 ft 376 kts 214°
2026-05-04 20:46 30.02633 -16.10424 37140 ft 376 kts 214°
2026-05-04 20:47 29.98027 -16.13281 37123 ft 375 kts 214°
2026-05-04 20:47 29.93429 -16.16134 37135 ft 375 kts 214°
2026-05-04 20:48 29.88862 -16.18965 37138 ft 374 kts 214°
2026-05-04 20:48 29.84270 -16.21809 37131 ft 374 kts 214°
2026-05-04 20:49 29.79695 -16.24643 37128 ft 373 kts 214°
2026-05-04 20:49 29.75112 -16.27474 37119 ft 373 kts 214°
2026-05-04 20:50 29.70559 -16.30273 37120 ft 373 kts 214°
2026-05-04 20:50 29.65978 -16.33090 37118 ft 372 kts 214°
2026-05-04 20:51 29.61403 -16.35900 37118 ft 372 kts 214°
2026-05-04 20:51 29.57177 -16.39143 37121 ft 365 kts 224°
2026-05-04 20:52 29.53254 -16.42861 37111 ft 365 kts 223°
2026-05-04 20:52 29.49322 -16.46557 37111 ft 365 kts 223°
2026-05-04 20:53 29.45418 -16.50231 37115 ft 364 kts 223°
2026-05-04 20:53 29.41502 -16.53929 37115 ft 364 kts 223°
2026-05-04 20:54 29.37605 -16.57601 37116 ft 364 kts 223°
2026-05-04 20:54 29.33688 -16.61288 37118 ft 364 kts 223°
2026-05-04 20:55 29.29763 -16.64971 37114 ft 364 kts 223°
2026-05-04 20:55 29.25841 -16.68645 36836 ft 363 kts 223°
2026-05-04 20:56 29.23903 -16.70458 36451 ft 357 kts 223°
2026-05-04 20:56 29.21988 -16.72249 36036 ft 352 kts 223°
2026-05-04 20:56 29.20101 -16.74016 35606 ft 348 kts 223°
2026-05-04 20:56 29.18254 -16.75747 35190 ft 345 kts 224°
2026-05-04 20:57 29.16406 -16.77478 34773 ft 341 kts 224°
2026-05-04 20:57 29.14587 -16.79173 34362 ft 339 kts 224°
2026-05-04 20:57 29.12761 -16.80870 33927 ft 336 kts 224°
2026-05-04 20:57 29.10957 -16.82553 33491 ft 332 kts 224°
2026-05-04 20:58 29.09174 -16.84219 33091 ft 327 kts 224°
2026-05-04 20:58 29.07421 -16.85859 32697 ft 323 kts 224°
2026-05-04 20:58 29.05707 -16.87460 32311 ft 321 kts 224°
2026-05-04 20:58 29.03978 -16.89074 31926 ft 319 kts 224°
2026-05-04 20:59 29.02258 -16.90678 31541 ft 317 kts 224°
2026-05-04 20:59 29.00544 -16.92274 31165 ft 316 kts 224°
2026-05-04 20:59 28.98860 -16.93839 30799 ft 315 kts 223°
2026-05-04 20:59 28.97166 -16.95413 30426 ft 313 kts 224°
2026-05-04 21:00 28.95475 -16.96986 30048 ft 312 kts 223°
2026-05-04 21:00 28.93794 -16.98551 29676 ft 310 kts 224°
2026-05-04 21:00 28.92127 -17.00099 29317 ft 307 kts 224°
2026-05-04 21:00 28.90476 -17.01632 28979 ft 305 kts 224°
2026-05-04 21:01 28.88832 -17.03162 28635 ft 303 kts 224°
2026-05-04 21:01 28.87203 -17.04675 28296 ft 301 kts 224°
2026-05-04 21:01 28.85609 -17.06153 27960 ft 298 kts 224°
2026-05-04 21:01 28.84005 -17.07639 27630 ft 296 kts 224°
2026-05-04 21:02 28.82412 -17.09114 27287 ft 294 kts 224°
2026-05-04 21:02 28.80832 -17.10577 26944 ft 292 kts 224°
2026-05-04 21:02 28.79265 -17.12029 26608 ft 289 kts 224°
2026-05-04 21:02 28.77707 -17.13474 26258 ft 287 kts 224°
2026-05-04 21:03 28.76162 -17.14904 25912 ft 285 kts 224°
2026-05-04 21:03 28.74628 -17.16323 25561 ft 283 kts 224°
2026-05-04 21:03 28.73100 -17.17734 25205 ft 281 kts 224°
2026-05-04 21:03 28.71587 -17.19131 24850 ft 278 kts 224°
2026-05-04 21:04 28.70058 -17.20493 24376 ft 283 kts 217°
2026-05-04 21:04 28.68151 -17.21303 23669 ft 309 kts 195°
2026-05-04 21:04 28.65932 -17.21056 22764 ft 344 kts 172°
2026-05-04 21:04 28.63630 -17.20071 21791 ft 361 kts 167°
2026-05-04 21:05 28.61275 -17.18933 21017 ft 371 kts 164°
2026-05-04 21:05 28.58944 -17.17735 20663 ft 365 kts 164°
2026-05-04 21:05 28.56643 -17.16539 20240 ft 362 kts 163°
2026-05-04 21:05 28.54355 -17.15367 19801 ft 358 kts 164°
2026-05-04 21:06 28.52092 -17.14229 19086 ft 353 kts 164°
2026-05-04 21:06 28.49847 -17.13120 18330 ft 349 kts 164°
2026-05-04 21:06 28.48366 -17.12398 17768 ft 347 kts 164°
2026-05-04 21:06 28.46165 -17.11331 16973 ft 342 kts 164°
2026-05-04 21:07 28.43280 -17.09936 15986 ft 336 kts 164°
2026-05-04 21:07 28.41835 -17.09236 15501 ft 333 kts 164°
2026-05-04 21:07 28.39742 -17.08220 14812 ft 329 kts 163°
2026-05-04 21:07 28.37641 -17.07203 14126 ft 324 kts 163°
2026-05-04 21:08 28.35571 -17.06205 13407 ft 320 kts 163°
2026-05-04 21:08 28.33531 -17.05223 12684 ft 316 kts 162°
2026-05-04 21:08 28.31547 -17.04258 12275 ft 303 kts 162°
2026-05-04 21:08 28.29639 -17.03328 11907 ft 301 kts 162°
2026-05-04 21:09 28.27717 -17.02396 11537 ft 300 kts 162°
2026-05-04 21:09 28.25795 -17.01468 11152 ft 299 kts 161°
2026-05-04 21:09 28.23884 -17.00548 10913 ft 293 kts 161°
2026-05-04 21:09 28.22057 -16.99665 10791 ft 283 kts 161°
2026-05-04 21:10 28.20272 -16.98802 10674 ft 274 kts 161°
2026-05-04 21:10 28.18544 -16.97967 10556 ft 265 kts 161°
2026-05-04 21:10 28.16876 -16.97162 10421 ft 257 kts 161°
2026-05-04 21:10 28.15234 -16.96396 10185 ft 253 kts 162°
2026-05-04 21:11 28.13603 -16.95665 9901 ft 252 kts 162°
2026-05-04 21:11 28.11972 -16.94945 9566 ft 251 kts 162°
2026-05-04 21:11 28.10348 -16.94231 9236 ft 250 kts 162°
2026-05-04 21:11 28.08732 -16.93520 8859 ft 248 kts 162°
2026-05-04 21:12 28.07126 -16.92810 8312 ft 247 kts 161°
2026-05-04 21:12 28.05543 -16.92107 7878 ft 248 kts 161°
2026-05-04 21:12 28.03935 -16.91397 7531 ft 248 kts 163°
2026-05-04 21:12 28.02258 -16.91202 7210 ft 241 kts 195°
2026-05-04 21:13 28.00821 -16.92097 6990 ft 235 kts 229°
2026-05-04 21:13 27.99990 -16.93701 6894 ft 239 kts 247°
2026-05-04 21:13 27.99339 -16.95412 6777 ft 240 kts 247°
2026-05-04 21:13 27.98687 -16.97160 6650 ft 241 kts 248°
2026-05-04 21:14 27.98037 -16.98905 6538 ft 241 kts 248°
2026-05-04 21:14 27.97383 -17.00653 6370 ft 240 kts 248°
2026-05-04 21:14 27.96728 -17.02400 6234 ft 241 kts 248°
2026-05-04 21:14 27.96079 -17.04127 6008 ft 238 kts 248°
2026-05-04 21:15 27.95430 -17.05854 5631 ft 239 kts 248°
2026-05-04 21:15 27.94603 -17.07478 5265 ft 240 kts 228°
2026-05-04 21:15 27.93261 -17.08539 4908 ft 242 kts 201°
2026-05-04 21:15 27.91600 -17.08782 4534 ft 243 kts 172°
2026-05-04 21:16 27.90045 -17.08113 4243 ft 238 kts 143°
2026-05-04 21:16 27.88961 -17.06742 4005 ft 232 kts 115°
2026-05-04 21:16 27.88545 -17.05018 3754 ft 225 kts 89°
2026-05-04 21:16 27.88761 -17.03313 3516 ft 220 kts 75°
2026-05-04 21:17 27.89094 -17.01638 3356 ft 214 kts 75°
2026-05-04 21:17 27.89412 -17.00002 3223 ft 212 kts 76°
2026-05-04 21:17 27.89729 -16.98377 3124 ft 211 kts 76°
2026-05-04 21:17 27.90088 -16.96770 3028 ft 209 kts 64°
2026-05-04 21:18 27.90942 -16.95492 3021 ft 207 kts 47°
2026-05-04 21:18 27.91641 -16.94074 3028 ft 209 kts 71°
2026-05-04 21:18 27.92118 -16.92512 3024 ft 210 kts 68°
2026-05-04 21:18 27.92647 -16.90977 3022 ft 209 kts 67°
2026-05-04 21:19 27.93184 -16.89450 3016 ft 209 kts 66°
2026-05-04 21:19 27.93721 -16.87921 3013 ft 209 kts 66°
2026-05-04 21:19 27.94255 -16.86402 3014 ft 210 kts 67°
2026-05-04 21:19 27.94792 -16.84871 3012 ft 209 kts 67°
2026-05-04 21:20 27.95328 -16.83342 3014 ft 209 kts 67°
2026-05-04 21:20 27.95866 -16.81810 2977 ft 210 kts 67°
2026-05-04 21:20 27.96403 -16.80279 2850 ft 208 kts 67°
2026-05-04 21:20 27.96935 -16.78759 2727 ft 207 kts 67°
2026-05-04 21:21 27.97465 -16.77246 2616 ft 206 kts 66°
2026-05-04 21:21 27.97990 -16.75747 2518 ft 205 kts 66°
2026-05-04 21:21 27.98499 -16.74289 2508 ft 191 kts 66°
2026-05-04 21:21 27.98972 -16.72938 2514 ft 185 kts 66°
2026-05-04 21:22 27.99445 -16.71586 2512 ft 184 kts 65°
2026-05-04 21:22 27.99922 -16.70223 2321 ft 189 kts 66°
2026-05-04 21:22 28.00410 -16.68829 2063 ft 192 kts 66°
2026-05-04 21:22 28.00904 -16.67415 1809 ft 195 kts 66°
2026-05-04 21:23 28.01397 -16.66001 1556 ft 188 kts 66°
2026-05-04 21:23 28.01855 -16.64684 1318 ft 171 kts 67°
2026-05-04 21:23 28.02264 -16.63512 1104 ft 150 kts 65°
2026-05-04 21:23 28.02629 -16.62466 915 ft 136 kts 66°
2026-05-04 21:24 28.02970 -16.61490 745 ft 131 kts 68°
2026-05-04 21:24 28.03308 -16.60523 542 ft 132 kts 67°
2026-05-04 21:24 28.03650 -16.59552 382 ft 134 kts 67°
2026-05-04 21:24 28.03964 -16.58569 229 ft 132 kts 68°
2026-05-04 21:25 28.04299 -16.57634 238 ft 133 kts 68°
2026-05-04 21:25 28.04644 -16.56537 700 ft 159 kts 70°
2026-05-04 21:25 28.05032 -16.55365 1606 ft 163 kts 66°
2026-05-04 21:25 28.05458 -16.54110 2039 ft 183 kts 66°
2026-05-04 21:26 28.05939 -16.52696 2465 ft 201 kts 66°
2026-05-04 21:26 28.06240 -16.51108 2931 ft 216 kts 91°
2026-05-04 21:26 28.05709 -16.49525 3002 ft 221 kts 126°
2026-05-04 21:26 28.04436 -16.48557 3009 ft 226 kts 162°
2026-05-04 21:27 28.02880 -16.48226 3010 ft 228 kts 170°
2026-05-04 21:27 28.01260 -16.48054 3010 ft 240 kts 175°
2026-05-04 21:27 27.99569 -16.48048 3011 ft 245 kts 181°
2026-05-04 21:27 27.97868 -16.48217 3005 ft 245 kts 187°
2026-05-04 21:28 27.96181 -16.48561 3010 ft 247 kts 192°
2026-05-04 21:28 27.94542 -16.49077 3005 ft 247 kts 198°
2026-05-04 21:28 27.92949 -16.49780 3003 ft 245 kts 212°
2026-05-04 21:28 27.91769 -16.51131 3013 ft 243 kts 239°
2026-05-04 21:29 27.90974 -16.52814 3010 ft 243 kts 246°
2026-05-04 21:29 27.90239 -16.54534 3012 ft 243 kts 245°
2026-05-04 21:29 27.89512 -16.56250 3007 ft 242 kts 246°
2026-05-04 21:29 27.88779 -16.57966 3005 ft 242 kts 245°
2026-05-04 21:30 27.88042 -16.59687 3009 ft 243 kts 246°
2026-05-04 21:30 27.87307 -16.61408 3004 ft 242 kts 247°
2026-05-04 21:30 27.86577 -16.63125 3006 ft 241 kts 247°
2026-05-04 21:30 27.86115 -16.64935 3004 ft 239 kts 264°
2026-05-04 21:31 27.85723 -16.68661 3009 ft 238 kts 266°
2026-05-04 21:31 27.85571 -16.70519 2921 ft 236 kts 274°
2026-05-04 21:31 27.85992 -16.72217 2803 ft 219 kts 307°
2026-05-04 21:32 27.87065 -16.73299 2686 ft 206 kts 332°
2026-05-04 21:32 27.88325 -16.74053 2589 ft 203 kts 335°
2026-05-04 21:32 27.89598 -16.74752 2502 ft 203 kts 336°
2026-05-04 21:32 27.90880 -16.75440 2501 ft 203 kts 336°
2026-05-04 21:33 27.92145 -16.76121 2520 ft 203 kts 336°
2026-05-04 21:33 27.93424 -16.76809 2522 ft 204 kts 336°
2026-05-04 21:33 27.94716 -16.77500 2511 ft 204 kts 338°
2026-05-04 21:33 27.96062 -16.77750 2502 ft 190 kts 11°
2026-05-04 21:34 27.97193 -16.77114 2509 ft 184 kts 44°
2026-05-04 21:34 27.97986 -16.75974 2512 ft 184 kts 60°
2026-05-04 21:34 27.98423 -16.74607 2515 ft 185 kts 68°
2026-05-04 21:34 27.98872 -16.73245 2519 ft 184 kts 66°
2026-05-04 21:35 27.99334 -16.71910 2492 ft 185 kts 66°
2026-05-04 21:35 27.99805 -16.70559 2336 ft 185 kts 65°
2026-05-04 21:35 28.00279 -16.69202 2132 ft 185 kts 66°
2026-05-04 21:35 28.00735 -16.67895 1908 ft 172 kts 65°
2026-05-04 21:36 28.01148 -16.66708 1683 ft 152 kts 66°
2026-05-04 21:36 28.01516 -16.65655 1470 ft 137 kts 66°
2026-05-04 21:36 28.01859 -16.64673 1297 ft 133 kts 67°
2026-05-04 21:36 28.02198 -16.63704 1133 ft 131 kts 65°
2026-05-04 21:37 28.02531 -16.62748 956 ft 130 kts 66°
2026-05-04 21:37 28.02863 -16.61798 795 ft 129 kts 69°
2026-05-04 21:37 28.03185 -16.60838 671 ft 133 kts 69°
2026-05-04 21:37 28.03526 -16.59865 450 ft 133 kts 66°
2026-05-04 21:38 28.03852 -16.58897 265 ft 132 kts 68°
2026-05-04 21:38 28.04188 -16.57983 202 ft 112 kts 69°
2026-05-04 21:38 28.04409 -16.57343 212 ft 62 kts 68°
2026-05-04 21:38 28.04512 -16.57087 214 ft 26 kts 58°
2026-05-04 21:39 28.04614 -16.56933 209 ft 24 kts 49°
2026-05-04 21:39 28.04708 -16.56817 210 ft 12 kts 43°
2026-05-04 21:39 28.04775 -16.56837 211 ft 12 kts 289°
2026-05-04 21:39 28.04755 -16.56922 210 ft 11 kts 248°
2026-05-04 21:40 28.04727 -16.57002 210 ft 11 kts 248°
2026-05-04 21:40 28.04703 -16.57072 213 ft 6 kts 249°
2026-05-04 21:40 28.04690 -16.57127 212 ft 8 kts 275°
2026-05-04 21:40 28.04732 -16.57168 212 ft 8 kts 335°
2026-05-04 21:41 28.04787 -16.57215 212 ft 13 kts 294°
2026-05-04 21:41 28.04770 -16.57308 208 ft 12 kts 250°
2026-05-04 21:41 28.04740 -16.57395 209 ft 12 kts 248°
2026-05-04 21:41 28.04710 -16.57480 210 ft 12 kts 248°
2026-05-04 21:42 28.04680 -16.57563 206 ft 11 kts 247°
2026-05-04 21:42 28.04658 -16.57622 213 ft 4 kts 249°
2026-05-04 21:42 28.04652 -16.57656 210 ft 1 kts 297°
2026-05-04 21:42 28.04659 -16.57659 209 ft 1 kts 329°
2026-05-04 21:43 28.04683 -16.57671 208 ft 8 kts 338°
2026-05-04 21:43 28.04713 -16.57683 209 ft 0 kts 340°
2026-05-04 21:43 28.04714 -16.57684 209 ft 0 kts 340°
2026-05-04 21:43 28.04716 -16.57685 210 ft 1 kts 340°
2026-05-04 21:44 28.04717 -16.57685 210 ft 0 kts 340°